Home > Weather > Santander > Past weeks

Flag for Spain Weather for the Past 2 Weeks in Santander, Spain

Now
48 °F

Partly cloudy.


Feels Like: 43 °F
Forecast: 50 / 54 °F
Wind: 14 mph from Northwest

Location: Santander / Parayas

Current Time: Feb 9, 2016 at 9:44:21 PM

Latest Report: Feb 9, 2016 at 9:00 PM


Visibility: N/A

Pressure: 29.92 "Hg

Humidity: 87%

Dew point: 45 °F

Location of SantanderLocation

Historic Weather in Santander — Graph

°F

Santander Temperature Yesterday

Maximum temperature yesterday: 66 °F (at 1:30 PM)
Minimum temperature yesterday: 54 °F (at 8:30 PM)
Average temperature yesterday: 59 °F

High & Low Weather Summary for the Past Weeks

 TemperatureHumidityPressure
High66 °F (Jan 27, 1:00 PM)100% (Jan 26, 6:00 AM)30.72 "Hg (Jan 26, 6:00 AM)
Low37 °F (Feb 5, 6:00 AM)39% (Feb 6, 1:00 PM)29.59 "Hg (Feb 6, 6:00 PM)
Average54 °F74%30.31 "Hg
* Reported Jan 25 8:00 PM — Feb 9 8:30 PM, Santander, Weather by CustomWeather, © 2016

Note: Actual official high and low records may vary slightly from our data, if they occured in-between our weather recording intervals... More about our weather records

Advertising

Santander Weather History for the Previous 24 Hours

 ConditionsComfort  
Time TempWeatherWind HumidityBarometerVisibility
8:30 PM
Tue, Feb 9
48 °FLight rain. Partly cloudy.21 mph87%29.89 "Hg4 mi
8:00 PM52 °FPassing clouds.20 mph88%29.86 "HgN/A
7:30 PM48 °FLight rain. Passing clouds.8 mph94%29.89 "HgN/A
7:00 PM48 °FLight rain. Passing clouds.6 mph87%29.86 "HgN/A
6:30 PM48 °FLight rain. Partly sunny.7 mph87%29.89 "HgN/A
6:00 PM48 °FBroken clouds.10 mph87%29.86 "HgN/A
5:00 PM50 °FBroken clouds.16 mph88%29.83 "HgN/A
4:30 PM48 °FRain. More clouds than sun.5 mph87%29.83 "Hg3 mi
4:00 PM48 °FRain. More clouds than sun.15 mph87%29.83 "Hg5 mi
3:30 PM50 °FLight rain. Broken clouds.12 mph88%29.80 "Hg4 mi
3:00 PM50 °FLight rain. Broken clouds.14 mph94%29.80 "Hg2 mi
2:30 PM54 °FRain. Broken clouds.22 mph88%29.77 "Hg1 mi
2:00 PM54 °FPartly sunny.22 mph88%29.77 "Hg4 mi
1:30 PM55 °FLight rain. Broken clouds.29 mph88%29.77 "Hg4 mi
1:00 PM57 °FLight rain. Partly sunny.32 mph77%29.77 "Hg3 mi
12:30 PM55 °FPartly sunny.25 mph88%29.77 "Hg5 mi
11:30 AM57 °FScattered clouds.1 mph88%29.68 "Hg5 mi
11:00 AM55 °FPassing clouds.1 mph88%29.68 "Hg4 mi
10:30 AM55 °FScattered clouds.1 mph88%29.68 "Hg5 mi
10:00 AM55 °FPassing clouds.No wind82%29.71 "Hg4 mi
9:00 AM54 °FFog.No wind88%29.74 "Hg2 mi
8:30 AM55 °FLight rain. Fog.6 mph82%29.74 "Hg2 mi
7:30 AM63 °FPassing clouds.10 mph52%29.71 "HgN/A
7:00 AM61 °FPassing clouds.9 mph55%29.71 "HgN/A
6:30 AM61 °FPassing clouds.16 mph55%29.71 "HgN/A
5:30 AM61 °FPassing clouds.16 mph55%29.74 "HgN/A
11:00 PM
Mon, Feb 8
54 °FFog.1 mph88%30.01 "Hg3 mi
10:30 PM54 °FClear.1 mph88%30.01 "Hg6 mi
10:00 PM55 °FPassing clouds.8 mph88%30.01 "HgN/A
9:30 PM55 °FPassing clouds.5 mph88%30.01 "HgN/A
9:00 PM54 °FPassing clouds.3 mph88%30.01 "HgN/A
Weather by CustomWeather, © 2016

See weather overviewHow to use our weather pages